Location: Cahas Mountain Overlook
(37.0833°N, 80.1000°W)
Time: 10:39:00
(UTC-05:00)

S-56A Canister/Altair - Pass Details

Date: 03 December 2023
Orbit: 640 x 2488 km, 38.9° (Epoch: 25 February)

Event Time Altitude Azimuth Distance (km) Brightness Sun altitude
Rises 13:27:29 0° 260° (W) 2,984 11.0 28.0°
Reaches altitude 10° 13:29:48 10° 261° (W) 2,027 10.2 27.9°
Maximum altitude 13:34:15 82° 348° (NNW) 661 7.6 27.6°
Drops below altitude 10° 13:39:13 10° 78° (ENE) 2,248 9.7 27.2°
Sets 13:41:54 0° 79° (E) 3,344 10.5 27.0°
